This is the latest recevied weather packets stored in our database for station/object DL1NUX-15. If no packets are shown the sender has not sent any weather packets the latest 10 day(s).
| Time | Temp. | Humidity | Pressure | Rain* | Wind** | Luminosity | Snow |
|---|---|---|---|---|---|---|---|
| 1777658157 | 19.44° C | 42% | 1026.1 hPa | 0 mm | - | 19 W/m² | - |
| 1777655159 | 21.11° C | 41% | 1026.1 hPa | 0 mm | - | 74 W/m² | - |
| 1777654560 | 21.11° C | 39% | 1026.2 hPa | 0 mm | - | 98 W/m² | - |
| 1777653916 | 21.11° C | 37% | 1026.2 hPa | 0 mm | - | 120 W/m² | - |
| 1777652717 | 21.67° C | 38% | 1026.5 hPa | 0 mm | - | 154 W/m² | - |
| 1777649719 | 21.11° C | 38% | 1026.8 hPa | 0 mm | - | 275 W/m² | - |
| 1777648520 | 21.11° C | 37% | 1027 hPa | 0 mm | - | 289 W/m² | - |
| 1777647321 | 21.67° C | 38% | 1027.3 hPa | 0 mm | - | 316 W/m² | - |
| 1777645550 | 21.11° C | 38% | 1027.5 hPa | 0 mm | - | 381 W/m² | - |
| 1777644951 | 21.67° C | 36% | 1027.6 hPa | 0 mm | - | 423 W/m² | - |
| 1777643152 | 21.67° C | 37% | 1027.8 hPa | 0 mm | - | 519 W/m² | - |
| 1777641924 | 21.11° C | 38% | 1028 hPa | 0 mm | - | 475 W/m² | - |
| 1777638323 | 20.56° C | 38% | 1028.7 hPa | 0 mm | - | 613 W/m² | - |
| 1777637124 | 20° C | 40% | 1029 hPa | 0 mm | - | 613 W/m² | - |
| 1777634726 | 20° C | 42% | 1029.3 hPa | 0 mm | - | 524 W/m² | - |
| 1777634126 | 18.89° C | 42% | 1029.3 hPa | 0 mm | - | 575 W/m² | - |
| 1777633526 | 18.89° C | 42% | 1029.5 hPa | 0 mm | - | 661 W/m² | - |
| 1777631727 | 18.33° C | 43% | 1029.8 hPa | 0 mm | - | 587 W/m² | - |
| 1777631128 | 17.78° C | 44% | 1029.9 hPa | 0 mm | - | 602 W/m² | - |
| 1777628729 | 18.33° C | 44% | 1030.2 hPa | 0 mm | - | 670 W/m² | - |
| 1777625732 | 16.67° C | 46% | 1030.4 hPa | 0 mm | - | 728 W/m² | - |
| 1777624533 | 16.11° C | 47% | 1030.6 hPa | 0 mm | - | 684 W/m² | - |
| 1777623318 | 15.56° C | 48% | 1030.6 hPa | 0 mm | - | 630 W/m² | - |
| 1777622718 | 15° C | 49% | 1030.6 hPa | 0 mm | - | 588 W/m² | - |
| 1777621519 | 14.44° C | 49% | 1030.5 hPa | 0 mm | - | 459 W/m² | - |
* Rain latest hour (hover to see other rain measurements)
** Current wind speed in m/s (hover to see current wind gust speed)